Regional Weather Roundup
Issued by NWS

Home | Current Version | Previous Version | Text Only | Print | Product List | Glossary Off
Versions: 1 2 3 4 5 6 7 8 9 10 11 12 13 14 15 16 17 18 19 20 21 22 23 24 25 26 27 28 29 30 31 32 33 34 35 36 37 38 39 40 41 42 43 44 45 46 47 48 49 50

000
ASUS43 KBIS 280210
RWRND

NORTH DAKOTA REGIONAL WEATHER ROUNDUP
NATIONAL WEATHER SERVICE BISMARCK ND
900 PM CDT FRI MAY 27 2016

NOTE: "FAIR" INDICATES FEW OR NO CLOUDS BELOW 12,000 FEET WITH NO
SIGNIFICANT WEATHER AND/OR OBSTRUCTIONS TO VISIBILITY.


NDZ001>003-009>011-017-280300-
NORTHWEST NORTH DAKOTA

CITY           SKY/WX    TMP DP  RH WIND       PRES   REMARKS
WILLISTON      CLOUDY    61  52  72 E8        29.84S
MINOT          PTCLDY    62  55  77 NE10      29.82R
MINOT AFB      CLOUDY    61  56  83 NE10      29.82R
$$

NDZ018>021-031>035-040>046-280300-
SOUTHWEST NORTH DAKOTA

CITY           SKY/WX    TMP DP  RH WIND       PRES   REMARKS
BISMARCK       MOCLDY    65  51  60 E6        29.80R
DICKINSON      PTCLDY    61  44  53 E5        29.80R
GARRISON         N/A     65  49  56 CALM      29.81R
HETTINGER ARPT CLEAR     63  46  54 CALM      29.83R
$$

NDZ004>008-012>016-024-026-027-054-280300-
NORTHEAST NORTH DAKOTA

CITY           SKY/WX    TMP DP  RH WIND       PRES   REMARKS
GRAND FORKS    CLOUDY    71  57  61 NE7       29.76S
GRND FRKS AFB  CLOUDY    69  53  57 NE2       29.78R
DEVILS LAKE    PTCLDY    63  56  78 N10       29.82R
$$

NDZ022-023-025-028>030-036>039-047>053-280300-
SOUTHEAST NORTH DAKOTA

CITY           SKY/WX    TMP DP  RH WIND       PRES   REMARKS
FARGO          CLOUDY    63  59  87 NW5       29.77S
JAMESTOWN      CLOUDY    66  54  65 NE3       29.77S
$$





USA.gov is the U.S. government's official web portal to all federal, state and local government web resources and services.